Regional Weather Roundup
Issued by NWS

Home | Current Version | Previous Version | Graphics & Text | Print | Product List | Glossary On
Versions: 1 2 3 4 5 6 7 8 9 10 11 12 13 14 15 16 17 18 19 20 21 22 23 24 25 26 27 28 29 30 31 32 33 34 35 36 37 38 39 40 41 42 43 44 45 46 47 48 49 50
000
ASUS45 KPSR 230110
RWRAZ

ARIZONA REGIONAL HOURLY WEATHER ROUNDUP
NATIONAL WEATHER SERVICE PHOENIX AZ
600 PM MST TUE JUL 22 2014

NOTE: FAIR INDICATES FEW OR NO CLOUDS BELOW 12,000 FEET WITH NO
SIGNIFICANT WEATHER AND/OR OBSTRUCTIONS TO VISIBILITY.

AZZ001>003-036-230200-
NORTHWEST ARIZONA

CITY           SKY/WX    TMP DP  RH WIND       PRES   REMARKS
BULLHEAD CITY  SUNNY    111  25   5 S8        29.81F HX 102
KINGMAN        SUNNY     99  20   6 SW14      30.05F
$$

AZZ004>008-015-016-018-230200-
NORTH CENTRAL ARIZONA

CITY           SKY/WX    TMP DP  RH WIND       PRES   REMARKS
GRAND CANYON   PTSUNNY   86  34  15 W8        30.34F
WILLIAMS       PTSUNNY   82  37  20 W5        30.41F
PRESCOTT       MOSUNNY   94  39  14 SW5       30.18F
FLAGSTAFF      PTSUNNY   84  37  18 W9        30.37S
PAYSON         PTSUNNY   95  37  13 SW10      30.20S
PAGE           MOSUNNY  101  31   8 NE7       30.09S
$$

AZZ009>014-017-230200-
NORTHEAST ARIZONA

CITY           SKY/WX    TMP DP  RH WIND       PRES   REMARKS
WINSLOW        MOSUNNY   96  36  12 CALM      30.15F
SAINT JOHNS    CLOUDY    79  52  38 S23G31    30.27S
WINDOW ROCK    PTSUNNY   89  28  11 NE7       30.33S
$$

AZZ023-230200-
GREATER PHOENIX AREA

CITY           SKY/WX    TMP DP  RH WIND       PRES   REMARKS
PHOENIX        MOSUNNY  111  45  11 W12G17    29.80F HX 106
BUCKEYE          N/A    109  46  12 W10       29.81F HX 105
GLENDALE       MOSUNNY  111  43  10 W8        29.81F HX 106
LUKE AFB       NOT AVBL
DEER VALLEY    SUNNY    109  41  10 SW9       29.82F HX 103
SCOTTSDALE     SUNNY    109  45  11 SW10      29.84F HX 104
MESA-GATEWAY   MOSUNNY  108  41  10 W9        29.85F HX 102
CHANDLER       MOSUNNY  109  45  11 W7        29.82F HX 104
$$

AZZ027-028-230200-
SOUTHWEST MARICOPA COUNTY AND PINAL COUNTY

CITY           SKY/WX    TMP DP  RH WIND       PRES   REMARKS
CASA GRANDE    SUNNY    108  48  13 CALM      29.86S HX 104
GILA BEND      PTCLDY   111  45  10 W10       29.82F HX 106
$$

AZZ503-504-507>509-230200-
SOUTHEAST ARIZONA

CITY           SKY/WX    TMP DP  RH WIND       PRES   REMARKS
TUCSON         SUNNY    104  45  13 W5        29.96F HX 100
DAVIS-MONTHAN  SUNNY    103  48  15 SW6       29.95S
RYAN FIELD       N/A    104  46  14 S5        29.95F HX 100
NOGALES        MOSUNNY   95  50  21 SE6       30.08S
SIERRA VISTA   PTSUNNY   93  46  20 S6        30.16S
DOUGLAS        PTSUNNY   96  50  20 CALM      30.10R
SAFFORD        PTSUNNY  101  46  15 MISG      29.98R
$$

AZZ020-021-025-026-031-230200-
SOUTHWEST ARIZONA

CITY           SKY/WX    TMP DP  RH WIND       PRES   REMARKS
YUMA           NOT AVBL
$$

CAZ031-033-041-043-047-048-061-230200-
SOUTHERN CALIFORNIA

CITY           SKY/WX    TMP DP  RH WIND       PRES   REMARKS
DOWNTOWN L.A.  SUNNY     81  55  40 VRB5      29.98F
L.A. AIRPORT   MOSUNNY   74  58  57 W12G22    29.99F
SAN DIEGO      MOSUNNY   76  64  66 W14       30.00F
BURBANK        SUNNY     86  49  27 S8        29.98F
ONTARIO        MOSUNNY   88  55  32 W13       29.99S
RIVERSIDE      SUNNY     89  56  32 W13       29.98F
PALM SPRINGS   SUNNY    108  40  10 NW17      29.84F HX 102
EL CENTRO NAS  MOSUNNY  110  33   7 CALM      29.76F HX 102
IMPERIAL       MOSUNNY  109  34   7 VRB3      29.76F HX 102
BLYTHE         MOSUNNY  110  41   9 SE9       29.78F HX 104
NEEDLES        SUNNY    112  25   5 W8        29.83F HX 103
$$

NVZ020-UTZ003-230200-
SOUTHERN NEVADA-UTAH

CITY           SKY/WX    TMP DP  RH WIND       PRES   REMARKS
LAS VEGAS      SUNNY    108  15   3 S6        29.88F
SALT LAKE CITY MOSUNNY   97  32  10 N9        30.07F
$$

NMZ009-TXZ055-230200-
NEW MEXICO-WEST TEXAS

CITY           SKY/WX    TMP DP  RH WIND       PRES   REMARKS
ALBUQUERQUE    PTSUNNY   87  46  24 SE17      30.24R
EL PASO        TSTM      79  61  53 E17       30.13R
$$


........................KEY........................
SKY/WX - SKY CONDITION/WEATHER
TMP    - TEMPERATURE IN FAHRENHEIT
DP     - DEW POINT IN FAHRENHEIT
RH     - RELATIVE HUMIDITY IN PERCENT
WIND   - DIRECTION AND SPEED IN MILES PER HOUR (MPH)
VRB    - VARIABLE WIND DIRECTION
PRES   - MEAN SEA LEVEL PRESSURE IN INCHES OF MERCURY
         F - FALLING PRESSURE   R - RISING PRESSURE
         S - STEADY PRESSURE
VSB    - VISIBILITY IN MILES
HX     - HEAT INDEX IN FAHRENHEIT
WCI    - WIND CHILL INDEX IN FAHRENHEIT
TC     - TEMPERATURE IN CELSIUS WHICH IS ALSO KNOWN AS
         TEMPERATURE IN CENTIGRADE
AFB    - AIR FORCE BASE
         LUKE AFB IS LUKE AIR FORCE BASE
         DAVIS-MONTHAN IS DAVIS-MONTHAN AIR FORCE BASE
NAS    - NAVAL AIR STATION
         EL CENTRO NAS IS EL CENTRO NAVAL AIR STATION
N/A    - NOT AVAILABLE


USA.gov is the U.S. government's official web portal to all federal, state and local government web resources and services.